[[{"header":{"parameterUnit":"m.s-1","parameterCategory":1,"la1":30.2991,"la2":30.254,"lo1":-89.0895,"lo2":-89.0444,"dy":0.0017,"dx":0.0017,"nx":28,"ny":28,"refTime":"2025-07-24T03:00:00:Z","depth":0,"parameterNumber":2,"parameterNumberName":"U-component_of_WINDS"},"data":[0,0,0,0,0,0,0,0,0,0,0,0,0,0,0,0,0,0,0,0,0,0,0,0,0,0,0,0,0,0,0,0,0,0,0,0,0,0,0,0,0,0,0,0,0,0,0,0,0,0,0,0,0,0,0,0,0,0,-1.7931,-1.7932,0,-1.8002,-1.8003,-1.8004,-1.8024,-1.8023,-1.8023,-1.8023,-1.8096,-1.8099,-1.8101,0,0,0,0,0,0,0,0,0,0,0,0,0,-1.7814,-1.7816,-1.7931,-1.7932,-1.7933,-1.8002,-1.8003,-1.8004,-1.8024,-1.8023,-1.8023,-1.8023,-1.8096,-1.8098,-1.8101,0,0,0,0,0,0,0,0,0,0,0,0,0,-1.7873,-1.7817,-1.7931,-1.7951,-1.7954,-1.8002,-1.8003,-1.8004,-1.8024,-1.8023,-1.8023,-1.8022,-1.8095,-1.8098,-1.8102,-1.8135,0,0,-1.8112,-1.8114,0,0,0,0,0,0,0,0,-1.787,-1.7877,-1.7947,-1.795,-1.7953,-1.8004,-1.7989,-1.8048,-1.8024,-1.7997,-1.8023,-1.8022,-1.8066,-1.8072,-1.8087,-1.8139,-1.8142,-1.8113,-1.8115,-1.8116,-1.8117,0,0,0,0,0,0,0,-1.7866,-1.7874,-1.7959,-1.7948,-1.7952,-1.7957,-1.7965,-1.8,-1.8034,-1.8,-1.8001,-1.8009,-1.8067,-1.8083,-1.8088,-1.8143,-1.8112,-1.8116,-1.8118,-1.8119,-1.8226,-1.8227,0,0,0,0,0,0,-1.7858,-1.7871,-1.7957,-1.7962,-1.7909,-1.796,-1.7968,-1.7988,-1.8034,-1.804,-1.801,-1.801,-1.8077,-1.8084,-1.8091,-1.8134,-1.8116,-1.8119,-1.8121,-1.8226,-1.8227,-1.8227,0,0,0,0,0,0,-1.7855,-1.7865,-1.7954,-1.7917,-1.7928,-1.7962,-1.7984,-1.799,-1.8005,-1.8042,-1.8048,-1.8019,-1.8077,-1.8086,-1.8124,-1.8136,-1.8121,-1.8124,-1.8225,-1.8226,-1.8227,-1.8219,0,0,0,0,0,0,-1.7852,-1.7864,-1.7877,-1.7917,-1.793,-1.7986,-1.7985,-1.7992,-1.8011,-1.8012,-1.8052,-1.8058,-1.8077,-1.8119,-1.8128,-1.8141,-1.8127,-1.8224,-1.8225,-1.8227,-1.8218,-1.8219,-1.8221,0,0,0,0,0,-1.7848,-1.7872,-1.7878,-1.7888,-1.7947,-1.7986,-1.7994,-1.8015,-1.8012,-1.8026,-1.8049,-1.8057,-1.8134,-1.8122,-1.8133,-1.8147,-1.8223,-1.8225,-1.8227,-1.8217,-1.8219,-1.8221,0,0,0,0,0,0,-1.7833,-1.7878,-1.7884,-1.7922,-1.795,-1.799,-1.8007,-1.8016,-1.8046,-1.8046,-1.8071,-1.808,-1.8116,-1.8136,-1.8122,-1.8182,-1.8179,-1.8182,-1.8168,-1.817,-1.8171,-1.8166,-1.813,0,0,0,0,0,-1.7835,-1.7863,-1.79,-1.793,-1.7944,-1.7973,-1.7991,-1.8005,-1.8035,-1.8047,-1.8073,-1.8102,-1.8133,-1.8153,-1.8183,-1.8221,-1.823,-1.8236,-1.8237,-1.8238,-1.8241,-1.8263,-1.8266,-1.8233,-1.8233,-1.8233,0,0,-1.7838,-1.7865,-1.7881,-1.7928,-1.7951,-1.798,-1.7983,-1.8013,-1.8035,-1.8052,-1.8089,-1.8109,-1.8144,-1.8182,-1.82,-1.8199,-1.8252,-1.824,-1.8241,-1.8243,-1.8265,-1.8268,-1.8271,-1.8234,-1.8234,-1.8234,0,0,-1.7858,-1.7881,-1.7909,-1.7932,-1.7967,-1.7987,-1.7993,-1.8031,-1.8045,-1.8083,-1.8096,-1.8123,-1.8175,-1.8199,-1.8218,-1.8247,-1.8256,-1.8257,-1.8263,-1.8284,-1.8287,-1.8289,-1.83,-1.8303,-1.826,-1.826,-1.826,0,-1.7857,-1.79,-1.7922,-1.7952,-1.7972,-1.7988,-1.8017,-1.8038,-1.8082,-1.8095,-1.8094,-1.816,-1.8184,-1.8228,-1.8235,-1.825,-1.8259,-1.8252,-1.8285,-1.8287,-1.829,-1.83,-1.8304,-1.8259,-1.8259,-1.8259,-1.8259,0,-1.7898,-1.7928,-1.7946,-1.7987,-1.8009,-1.8038,-1.8064,-1.8084,-1.8096,-1.8116,-1.8154,-1.8184,-1.8221,-1.8232,-1.8244,-1.8278,-1.8277,-1.8279,-1.8276,-1.8292,-1.8302,-1.8306,-1.8259,-1.8259,-1.8259,-1.8259,0,0,-1.7911,-1.7963,-1.797,-1.7989,-1.8029,-1.8052,-1.8082,-1.8118,-1.8134,-1.8164,-1.8189,-1.8233,-1.8236,-1.8258,-1.8273,-1.8291,-1.8313,-1.8292,-1.8293,-1.8295,-1.8352,-1.8349,-1.8353,-1.8319,-1.832,-1.832,-1.8349,0,-1.7936,-1.7989,-1.8009,-1.8053,-1.8081,-1.8097,-1.8123,-1.8151,-1.817,-1.8197,-1.8218,-1.8249,-1.8251,-1.8264,-1.8283,-1.8306,-1.8324,-1.8304,-1.8343,-1.8344,-1.8334,-1.8359,-1.8356,-1.8381,-1.8353,-1.8354,-1.8354,0,-1.7972,-1.8002,-1.8048,-1.8084,-1.8097,-1.812,-1.8154,-1.8179,-1.8211,-1.8224,-1.8248,-1.8262,-1.8294,-1.8289,-1.8334,-1.8319,-1.8337,-1.8351,-1.8352,-1.8356,-1.835,-1.8363,-1.839,-1.8394,-1.8361,-1.836,-1.836,0,-1.7977,-1.8028,-1.8062,-1.8078,-1.8122,-1.8137,-1.8156,-1.8187,-1.8207,-1.8238,-1.8251,-1.8284,-1.8303,-1.8329,-1.8351,-1.8346,-1.8394,-1.8391,-1.8406,-1.8405,-1.8415,-1.8414,-1.8445,-1.8426,-1.8426,-1.8426,-1.8426,0,-1.8003,-1.8031,-1.8065,-1.8086,-1.8118,-1.8141,-1.8172,-1.8192,-1.8219,-1.8245,-1.8261,-1.8285,-1.8314,-1.8341,-1.8359,-1.8394,-1.8402,-1.8413,-1.8418,-1.8412,-1.841,-1.8423,-1.8422,-1.8427,-1.8427,-1.8427,-1.8427,0,-1.8014,-1.8038,-1.8076,-1.8114,-1.8124,-1.8146,-1.8179,-1.82,-1.822,-1.8252,-1.8261,-1.8292,-1.8326,-1.8351,-1.8394,-1.8406,-1.8443,-1.8448,-1.8432,-1.8434,-1.8447,-1.8446,-1.8487,-1.8494,-1.8471,-1.8471,-1.8471,0,-1.8029,-1.805,-1.809,-1.8108,-1.8127,-1.8156,-1.8176,-1.82,-1.8221,-1.8259,-1.8275,-1.831,-1.8338,-1.8391,-1.8418,-1.8451,-1.8457,-1.8469,-1.8462,-1.8455,-1.8457,-1.8455,-1.8457,-1.847,-1.847,-1.847,-1.847,0,-1.8053,-1.8063,-1.8092,-1.8125,-1.8148,-1.8175,-1.8203,-1.8217,-1.8246,-1.8268,-1.8302,-1.8324,-1.8368,-1.8402,-1.8438,-1.8458,-1.8469,-1.8472,-1.8477,-1.8471,-1.8461,-1.8467,-1.8434,-1.8471,-1.8471,-1.8471,-1.8471,-1.8471,-1.8066,-1.8086,-1.8117,-1.8148,-1.8171,-1.8196,-1.8218,-1.824,-1.8269,-1.8306,-1.8319,-1.8354,-1.8385,-1.8434,-1.8455,-1.8483,-1.8483,-1.8491,-1.8493,-1.8494,-1.8493,-1.8457,-1.849,-1.849,-1.849,-1.849,-1.849,0,-1.8091,-1.8112,-1.814,-1.8177,-1.8202,-1.821,-1.824,-1.826,-1.8291,-1.8319,-1.8347,-1.8386,-1.8418,-1.8448,-1.8482,-1.8499,-1.8505,-1.8507,-1.8506,-1.8511,-1.8491,-1.8483,-1.8502,-1.8502,-1.8502,-1.8502,-1.8502,-1.8502,-1.8107,-1.8141,-1.8155,-1.8201,-1.8221,-1.8255,-1.8272,-1.8295,-1.8318,-1.836,-1.8388,-1.8406,-1.8435,-1.8472,-1.8502,-1.851,-1.8522,-1.8523,-1.8532,-1.8514,-1.8512,-1.851,-1.8503,-1.8525,-1.8525,-1.8549,-1.8549,-1.855]},{"header":{"parameterUnit":"m.s-1","parameterCategory":1,"la1":30.2991,"la2":30.254,"lo1":-89.0895,"lo2":-89.0444,"dy":0.0017,"dx":0.0017,"nx":28,"ny":28,"refTime":"2025-07-24T03:00:00:Z","depth":0,"parameterNumber":3,"parameterNumberName":"V-component_of_WINDS"},"data":[0,0,0,0,0,0,0,0,0,0,0,0,0,0,0,0,0,0,0,0,0,0,0,0,0,0,0,0,0,0,0,0,0,0,0,0,0,0,0,0,0,0,0,0,0,0,0,0,0,0,0,0,0,0,0,0,0,0,6.3061,6.3063,0,6.3221,6.3222,6.3224,6.317,6.3167,6.3163,6.316,6.3319,6.3326,6.3334,0,0,0,0,0,0,0,0,0,0,0,0,0,6.2703,6.271,6.3061,6.3063,6.3065,6.322,6.3223,6.3225,6.3171,6.3166,6.3162,6.3158,6.3316,6.3325,6.3334,0,0,0,0,0,0,0,0,0,0,0,0,0,6.286,6.2712,6.306,6.3057,6.3058,6.322,6.3223,6.3225,6.3172,6.3166,6.3161,6.3156,6.3314,6.3324,6.3336,6.351,0,0,6.337,6.3375,0,0,0,0,0,0,0,0,6.2851,6.2873,6.3055,6.3057,6.3059,6.317,6.3155,6.332,6.3173,6.3128,6.316,6.3154,6.3273,6.3288,6.3329,6.3517,6.3524,6.3371,6.3378,6.3382,6.3386,0,0,0,0,0,0,0,6.284,6.2866,6.3124,6.3058,6.306,6.3045,6.3062,6.3186,6.3228,6.3132,6.3128,6.3148,6.3273,6.3318,6.3332,6.3526,6.3371,6.3381,6.3387,6.3392,6.3862,6.3867,0,0,0,0,0,0,6.2829,6.2857,6.3119,6.3129,6.294,6.3056,6.3074,6.314,6.3227,6.3235,6.3152,6.3145,6.3302,6.3319,6.3338,6.3545,6.3382,6.3393,6.3399,6.3856,6.3863,6.3869,0,0,0,0,0,0,6.2822,6.2853,6.3112,6.2992,6.3024,6.3067,6.3141,6.3146,6.319,6.3242,6.3249,6.3191,6.3298,6.3322,6.3467,6.3549,6.3398,6.3408,6.3849,6.3858,6.3866,6.3962,0,0,0,0,0,0,6.2811,6.2851,6.2919,6.2994,6.3031,6.3241,6.3147,6.3152,6.321,6.3202,6.328,6.3288,6.3296,6.345,6.3478,6.3562,6.3417,6.3842,6.3853,6.3863,6.3951,6.3972,6.3991,0,0,0,0,0,6.2799,6.2939,6.2922,6.2954,6.3117,6.3246,6.3266,6.3274,6.3217,6.3285,6.3318,6.3285,6.3537,6.3466,6.3496,6.3585,6.3837,6.385,6.3862,6.3942,6.3968,6.399,0,0,0,0,0,0,6.2871,6.2949,6.2931,6.31,6.3167,6.3236,6.3322,6.3302,6.3385,6.3373,6.3378,6.3396,6.3544,6.3579,6.3499,6.3756,6.3678,6.3697,6.3728,6.3753,6.3772,6.376,6.3426,0,0,0,0,0,6.2907,6.3007,6.3068,6.3211,6.3246,6.3278,6.3335,6.3335,6.3404,6.3431,6.3475,6.3541,6.3634,6.3696,6.3785,6.3957,6.3971,6.4033,6.4052,6.4068,6.4084,6.4175,6.4202,6.3911,6.3911,6.3911,0,0,6.2981,6.3036,6.3098,6.3227,6.3279,6.338,6.3302,6.3413,6.3487,6.3447,6.3587,6.3621,6.3695,6.3854,6.3925,6.3887,6.4168,6.4085,6.4097,6.4105,6.4191,6.4218,6.4243,6.392,6.3919,6.3917,0,0,6.3167,6.3221,6.3344,6.3397,6.3477,6.3497,6.3527,6.36,6.3621,6.3762,6.3733,6.3821,6.3982,6.4036,6.4084,6.429,6.4262,6.4318,6.442,6.4508,6.4531,6.4551,6.4622,6.4648,6.4335,6.4335,6.4335,0,6.3249,6.3402,6.341,6.3523,6.3579,6.3549,6.3672,6.3723,6.3827,6.3866,6.3822,6.4023,6.4071,6.424,6.429,6.4331,6.4363,6.4309,6.4528,6.4548,6.4567,6.4634,6.4661,6.4341,6.4341,6.434,6.4339,0,6.3497,6.3604,6.3694,6.3796,6.3862,6.398,6.4003,6.4069,6.4064,6.4088,6.4229,6.4286,6.4385,6.4425,6.4421,6.4593,6.4567,6.4526,6.4446,6.4601,6.4664,6.469,6.435,6.4348,6.4346,6.4345,0,0,6.3734,6.3838,6.387,6.3915,6.4,6.4082,6.4197,6.4295,6.435,6.4423,6.4518,6.4655,6.4617,6.4672,6.4672,6.475,6.4906,6.4699,6.4701,6.4733,6.5096,6.5125,6.5155,6.4889,6.4894,6.4898,6.5089,0,6.3925,6.4129,6.4138,6.4323,6.442,6.4392,6.4492,6.4553,6.4579,6.4663,6.4691,6.4787,6.4731,6.4764,6.484,6.4871,6.4978,6.4858,6.4975,6.4979,6.4955,6.5189,6.522,6.5398,6.5114,6.5119,6.5122,0,6.4176,6.4257,6.4452,6.4521,6.4562,6.4652,6.4741,6.4823,6.4891,6.4904,6.4965,6.4954,6.507,6.4988,6.5146,6.5063,6.5111,6.5134,6.5141,6.5151,6.5058,6.5202,6.5456,6.5482,6.5161,6.5158,6.5155,0,6.4326,6.4483,6.4619,6.4659,6.4744,6.4807,6.4845,6.4909,6.4966,6.5044,6.5081,6.517,6.5219,6.5288,6.5301,6.524,6.5458,6.5378,6.5469,6.5469,6.5515,6.5512,6.5777,6.555,6.555,6.5549,6.5549,0,6.4537,6.4657,6.4687,6.4771,6.4903,6.4912,6.5042,6.5075,6.5131,6.5219,6.52,6.5283,6.5296,6.5381,6.5392,6.5519,6.5542,6.5553,6.5554,6.5554,6.5552,6.5584,6.5571,6.5556,6.5555,6.5553,6.5552,0,6.4726,6.4752,6.4898,6.4966,6.4986,6.508,6.5137,6.5216,6.524,6.5351,6.5377,6.5414,6.5512,6.5533,6.565,6.5656,6.5807,6.5797,6.5785,6.5783,6.5873,6.5863,6.6167,6.6206,6.5955,6.5957,6.5959,0,6.4859,6.495,6.5028,6.5086,6.5127,6.5221,6.5279,6.5291,6.5352,6.5436,6.5504,6.5601,6.5679,6.5838,6.5874,6.5962,6.5953,6.6053,6.5966,6.5962,6.5951,6.5945,6.5953,6.6069,6.6072,6.6074,6.6076,0,6.509,6.5098,6.5184,6.5274,6.5345,6.5416,6.5484,6.5532,6.5552,6.5622,6.5723,6.5783,6.5903,6.5998,6.6087,6.6123,6.6103,6.6103,6.6129,6.6128,6.6116,6.6122,6.5828,6.6096,6.6094,6.6092,6.6091,6.609,6.5254,6.5332,6.5399,6.5495,6.5547,6.561,6.5687,6.572,6.5805,6.5904,6.5905,6.6015,6.6079,6.6195,6.6238,6.6323,6.6291,6.6329,6.6338,6.6346,6.6354,6.6105,6.6339,6.6338,6.6338,6.6338,6.6337,0,6.5482,6.5524,6.5612,6.5707,6.5781,6.5757,6.583,6.5893,6.5991,6.6053,6.613,6.6245,6.6337,6.638,6.6471,6.653,6.6523,6.6553,6.6548,6.6556,6.6378,6.6346,6.6558,6.6558,6.6558,6.6558,6.6558,6.6558,6.561,6.5741,6.5757,6.5913,6.5953,6.6061,6.6105,6.6162,6.6211,6.6341,6.6418,6.6446,6.6499,6.6593,6.6676,6.6686,6.6719,6.6754,6.676,6.6592,6.6569,6.6548,6.6517,6.6762,6.6762,6.6931,6.6932,6.6933]}]]